Location: Rumah Geringgi
(3.1667°N, 113.1667°E)
Time: 20:09:33
(UTC+00:00)

OAO 2 Rocket - Pass Details

Date: 03 August 2024
Orbit: 672 x 738 km, 35.0° (Epoch: 19 September)

Event Time Altitude Azimuth Distance (km) Brightness Sun altitude
Exits shadow 21:29:55 21° 247° (WSW) 1,585 4.5 -14.2°
Maximum altitude 21:33:19 63° 323° (NW) 801 3.5 -13.4°
Drops below altitude 10° 21:38:22 10° 44° (NE) 2,173 6.9 -12.2°
Sets 21:40:47 0° 47° (NE) 3,079 8.0 -11.6°
